Regional Weather Roundup
Issued by NWS State College, PA

Home | Current Version | Previous Version | Graphics & Text | Print | Product List | Glossary Off
Versions: 1 2 3 4 5 6 7 8 9 10 11 12 13 14 15 16 17 18 19 20 21 22 23 24 25 26 27 28 29 30 31 32 33 34 35 36 37 38 39 40 41 42 43 44 45 46 47 48 49 50

000
ASUS41 KCTP 271010
RWRCTP

REGIONAL WEATHER ROUNDUP
NATIONAL WEATHER SERVICE STATE COLLEGE PA
600 AM EDT THU JUL 27 2017

Note: "fair" indicates few or no clouds below 12,000 feet with no
significant weather and/or obstructions to visibility.

* = STATION THAT DOES NOT REPORT PRECIPITATION /E.G. RAIN...SNOW...ETC/
    THUNDER OR FOG.

PAZ002>004-007>009-013>016-020>023-029>032-271100-
WESTERN PENNSYLVANIA

CITY           SKY/WX    TMP DP  RH WIND       PRES   REMARKS
ERIE           CLOUDY    68  61  78 S7        29.98F
MEADVILLE      PTCLDY    65  63  93 SE3       30.03R
FRANKLIN*      MOCLDY    61  57  88 CALM      30.03S
NEW CASTLE     FAIR      62  62 100 CALM      30.02R FOG
BEAVER COUNTY  NOT AVBL
BUTLER*        PTCLDY    63  61  94 CALM      30.01S
PITTSBURGH INT MOCLDY    64  62  93 CALM      30.01S
PITTSBURGH     CLOUDY    65  61  87 S3        30.01S
INDIANA*       CLEAR     64  63  94 CALM      30.05S
LATROBE        CLOUDY    63  63 100 CALM      30.02F
WASHINGTON CO* MOCLDY    61  57  88 CALM      30.02R
$$

PAZ004>006-010>012-017>019-024>028-033>037-041-042-045-046-049>053-271100-
CENTRAL PENNSYLVANIA

CITY           SKY/WX    TMP DP  RH WIND       PRES   REMARKS
BRADFORD       CLOUDY    60  60 100 CALM      30.05S
DUBOIS         CLOUDY    61  58  90 E3        30.03S FOG
CLEARFIELD     CLOUDY    59  59 100 CALM      30.04S
JOHNSTOWN      PTCLDY    62  61  96 S5        30.06S
ALTOONA        MOCLDY    61  61 100 CALM      30.05S
STATE COLLEGE  CLOUDY    66  63  88 CALM      30.03F
WILLIAMSPORT   CLOUDY    66  63  90 CALM      30.01R
SELINSGROVE    CLOUDY    69  67  93 VRB6      30.03R
FT INDIANTOWN  CLOUDY    68  65  91 CALM      30.05S
CAPITAL CITY   CLOUDY    71  65  81 SE6       30.04S
HARRISBURG     CLOUDY    70  67  90 SE5       30.03S
YORK           CLOUDY    70  68  93 CALM      30.05S
$$

PAZ038>040-043-044-047-048-054-055-060>062-067>071-271100-
EASTERN PENNSYLVANIA

CITY           SKY/WX    TMP DP  RH WIND       PRES   REMARKS
SCRANTON       CLOUDY    68  63  84 CALM      30.05S
MOUNT POCONO   CLOUDY    61  61 100 W7        30.09S
ALLENTOWN      CLOUDY    68  61  78 VRB3      30.06S
QUAKERTOWN*    CLOUDY    64  63  94 CALM      30.08R
READING        CLOUDY    68  65  90 CALM      30.04S
LANCASTER      CLOUDY    69  66  90 SE3       30.05R
COATESVILLE    PTSUNNY   66  64  94 CALM      30.08R
POTTSTOWN      CLOUDY    63  63 100 CALM      30.08R
BLUE BELL      CLOUDY    63  61  94 CALM      30.08R
DOYLESTOWN     MOCLDY    61  61 100 CALM      30.06R
WILLOW GROVE   NOT AVBL
NORTH PHILA    MOCLDY    66  61  84 CALM      30.08S
PHILADELPHIA   CLOUDY    68  63  84 S6        30.06S
$$




USA.gov is the U.S. government's official web portal to all federal, state and local government web resources and services.